FW7499 Weather Reports


Display with metric or nautical units.
time (UTC)temp
F
wind
direction
speed
MPH
gust
MPH
rain 1hr
in
rain 24hr
in
rain mn
in
humidity
%
barometer
mb
20260831163033 83 350 1.0 3.0 0.00 0.00 0.00 68 1013.7
20260831162502 82 331 1.0 3.0 0.00 0.00 0.00 69 1013.7
20260831162007 81 322 1.0 2.0 0.00 0.00 0.00 70 1013.7
20260831161514 81 360 2.0 3.0 0.00 0.00 0.00 69 1013.6
20260831161003 82 333 1.0 3.0 0.00 0.00 0.00 69 1013.5
20260831160507 82 316 1.0 4.0 0.00 0.00 0.00 70 1013.4
20260831160013 82 313 1.0 4.0 0.00 0.00 0.00 69 1013.4
20260831155515 82 328 1.0 4.0 0.00 0.00 0.00 71 1013.2
20260831155003 81 308 1.0 3.0 0.00 0.00 0.00 71 1013.0
20260831154521 81 321 0.0 4.0 0.00 0.00 0.00 72 1013.0
20260831154007 82 324 2.0 4.0 0.00 0.00 0.00 70 1013.0
20260831153505 82 360 1.0 4.0 0.00 0.00 0.00 71 1012.8
20260831153004 82 336 0.0 4.0 0.00 0.00 0.00 70 1013.0
20260831152512 81 325 1.0 4.0 0.00 0.00 0.00 73 1013.1
20260831152008 80 321 1.0 3.0 0.00 0.00 0.00 75 1013.1
20260831151521 79 360 1.0 2.0 0.00 0.00 0.00 78 1012.9
20260831151005 78 360 1.0 2.0 0.00 0.00 0.00 78 1013.0
20260831150508 78 360 0.0 2.0 0.00 0.00 0.00 79 1013.0
20260831150027 78 360 0.0 3.0 0.00 0.00 0.00 79 1013.0
20260831145505 78 360 1.0 3.0 0.00 0.00 0.00 80 1013.1
20260831145003 78 342 1.0 2.0 0.00 0.00 0.00 80 1013.2
20260831144524 77 88 0.0 2.0 0.00 0.00 0.00 81 1012.8
20260831144008 77 88 0.0 2.0 0.00 0.00 0.00 81 1012.6
20260831143506 77 342 1.0 2.0 0.00 0.00 0.00 80 1012.6
20260831143007 77 327 0.0 2.0 0.00 0.00 0.00 83 1012.7
20260831142506 77 327 0.0 2.0 0.00 0.00 0.00 81 1012.7
20260831142006 77 327 0.0 2.0 0.00 0.00 0.00 82 1012.6
20260831141514 77 327 0.0 2.0 0.00 0.00 0.00 81 1013.0
20260831141004 76 327 1.0 2.0 0.00 0.00 0.00 81 1012.8
20260831140511 76 300 0.0 2.0 0.00 0.00 0.00 80 1012.7
20260831140022 76 9 0.0 3.0 0.00 0.00 0.00 81 1012.4
20260831135505 76 313 0.0 3.0 0.00 0.00 0.00 82 1012.6
20260831135003 76 360 1.0 3.0 0.00 0.00 0.00 81 1012.1
20260831134506 76 274 0.0 3.0 0.00 0.00 0.00 81 1012.0
20260831134003 76 329 1.0 5.0 0.00 0.00 0.00 81 1012.6
20260831133503 76 327 2.0 5.0 0.00 0.00 0.00 81 1012.8
20260831133004 76 343 1.0 3.0 0.00 0.00 0.00 81 1013.0
20260831132507 76 344 1.0 4.0 0.00 0.00 0.00 82 1012.8
20260831132008 76 246 2.0 4.0 0.00 0.00 0.00 81 1012.8
20260831131506 76 34 2.0 4.0 0.00 0.00 0.00 83 1012.9
20260831131008 76 338 0.0 3.0 0.00 0.00 0.00 84 1012.7
20260831130507 76 338 0.0 3.0 0.00 0.00 0.00 83 1012.8
20260831130004 76 360 1.0 3.0 0.00 0.00 0.00 83 1012.7
20260831125504 76 185 1.0 3.0 0.00 0.00 0.00 82 1012.8
20260831125004 76 240 1.0 4.0 0.00 0.00 0.00 83 1012.7
20260831124518 76 259 1.0 4.0 0.00 0.00 0.00 84 1012.8
20260831124003 76 296 0.0 2.0 0.00 0.00 0.00 85 1012.7
20260831123503 75 295 0.0 2.0 0.00 0.00 0.00 86 1012.6
20260831123005 75 286 0.0 2.0 0.00 0.00 0.00 87 1012.2
20260831122505 75 286 0.0 2.0 0.00 0.00 0.00 87 1012.3
20260831122003 74 286 0.0 2.0 0.00 0.00 0.00 88 1012.3
20260831121509 74 286 0.0 1.0 0.00 0.00 0.00 90 1012.1
20260831121008 73 286 0.0 2.0 0.00 0.00 0.00 90 1011.9
20260831120505 74 286 0.0 2.0 0.00 0.00 0.00 90 1011.7
20260831120009 73 286 1.0 2.0 0.00 0.00 0.00 90 1011.7
20260831115506 73 257 0.0 2.0 0.00 0.00 0.00 91 1011.8
20260831115011 73 257 0.0 2.0 0.00 0.00 0.00 91 1011.5
20260831114508 73 257 0.0 1.0 0.00 0.00 0.00 91 1011.2
20260831114006 73 257 0.0 1.0 0.00 0.00 0.00 91 1011.4
20260831113514 73 258 0.0 2.0 0.00 0.00 0.00 90 1011.2
20260831113012 73 257 0.0 2.0 0.00 0.00 0.00 90 1011.2
20260831112506 74 258 0.0 2.0 0.00 0.00 0.00 90 1011.0
20260831112003 74 257 0.0 2.0 0.00 0.00 0.00 90 1011.0
20260831111513 74 257 0.0 2.0 0.00 0.00 0.00 90 1010.9
20260831111003 74 258 0.0 0.0 0.00 0.00 0.00 90 1010.8
20260831110506 74 257 0.0 0.0 0.00 0.00 0.00 90 1010.8
20260831110006 74 257 0.0 0.0 0.00 0.00 0.00 90 1010.8
20260831105510 74 258 0.0 0.0 0.00 0.00 0.00 89 1010.8
20260831105006 74 257 0.0 2.0 0.00 0.00 0.00 89 1010.9
20260831104522 74 257 0.0 2.0 0.00 0.00 0.00 89 1010.8
20260831104010 74 257 0.0 2.0 0.00 0.00 0.00 90 1010.8
20260831103505 74 258 0.0 2.0 0.00 0.00 0.00 89 1010.8
20260831103017 74 257 0.0 2.0 0.00 0.00 0.00 89 1010.8
20260831102511 74 257 0.0 0.0 0.00 0.00 0.00 90 1010.7
20260831102005 74 257 0.0 1.0 0.00 0.00 0.00 90 1010.7
20260831101507 74 258 0.0 2.0 0.00 0.00 0.00 90 1010.7
20260831101006 74 258 0.0 2.0 0.00 0.00 0.00 90 1010.5
20260831100504 74 258 0.0 0.0 0.00 0.00 0.00 90 1010.6
20260831100006 74 257 0.0 0.0 0.00 0.00 0.00 90 1010.6
20260831095503 74 257 0.0 0.0 0.00 0.00 0.00 90 1010.4
20260831095011 74 258 0.0 0.0 0.00 0.00 0.00 90 1010.4
20260831094516 73 257 0.0 0.0 0.00 0.00 0.00 91 1010.5
20260831094004 74 257 0.0 2.0 0.00 0.00 0.00 90 1010.3
20260831093511 74 258 0.0 2.0 0.00 0.00 0.00 90 1010.2
20260831093013 74 257 0.0 2.0 0.00 0.00 0.00 90 1010.1
20260831092513 74 258 0.0 2.0 0.00 0.00 0.00 90 1010.1
20260831092007 74 258 0.0 2.0 0.00 0.00 0.00 90 1010.1
20260831091507 74 258 0.0 0.0 0.00 0.00 0.00 90 1010.1
20260831091016 74 258 0.0 0.0 0.00 0.00 0.00 89 1010.1
20260831090508 74 257 0.0 0.0 0.00 0.00 0.00 89 1010.1
20260831090009 74 258 0.0 0.0 0.00 0.00 0.00 89 1010.1
20260831085509 74 257 0.0 0.0 0.00 0.00 0.00 89 1010.0
20260831085010 74 257 0.0 0.0 0.00 0.00 0.00 89 1010.0
20260831084518 75 257 0.0 2.0 0.00 0.00 0.00 88 1009.9
20260831084011 75 257 0.0 2.0 0.00 0.00 0.00 87 1009.9
20260831083507 75 257 0.0 2.0 0.00 0.00 0.00 88 1009.8
20260831083008 75 257 0.0 2.0 0.00 0.00 0.00 88 1009.7
20260831082513 75 257 0.0 1.0 0.00 0.00 0.00 88 1009.7
20260831082013 75 257 0.0 0.0 0.00 0.00 0.00 88 1009.7
20260831081524 75 258 0.0 2.0 0.00 0.00 0.00 88 1009.6
20260831081013 75 257 0.0 2.0 0.00 0.00 0.00 88 1009.6
20260831080512 75 257 0.0 0.0 0.00 0.00 0.00 88 1009.8
20260831080033 75 258 0.0 0.0 0.00 0.00 0.00 87 1009.7
20260831075507 76 257 0.0 0.0 0.00 0.00 0.00 86 1009.7
20260831075012 76 257 0.0 2.0 0.00 0.00 0.00 86 1009.7
20260831074510 76 258 0.0 2.0 0.00 0.00 0.00 86 1009.5
20260831074007 76 257 0.0 2.0 0.00 0.00 0.00 87 1009.6
20260831073508 76 352 0.0 1.0 0.00 0.00 0.00 87 1009.7
20260831073015 76 352 0.0 1.0 0.00 0.00 0.00 87 1009.8
20260831072516 76 352 0.0 1.0 0.00 0.00 0.00 87 1009.9
20260831072006 76 352 0.0 2.0 0.00 0.00 0.00 87 1009.9
20260831071544 76 352 0.0 2.0 0.00 0.00 0.00 87 1009.9
20260831071014 76 352 0.0 0.0 0.00 0.00 0.00 87 1009.8
20260831070512 76 352 0.0 0.0 0.00 0.00 0.00 87 1009.9
20260831070015 76 352 0.0 0.0 0.00 0.00 0.00 86 1009.9
20260831065514 76 352 0.0 0.0 0.00 0.00 0.00 86 1010.0
20260831065010 76 352 0.0 0.0 0.00 0.00 0.00 87 1010.0
20260831064532 76 352 0.0 0.0 0.00 0.00 0.00 87 1010.0
20260831064010 76 352 0.0 0.0 0.00 0.00 0.00 87 1010.0
20260831063510 76 352 0.0 0.0 0.00 0.00 0.00 86 1010.0
20260831063006 76 352 0.0 0.0 0.00 0.00 0.00 86 1010.0
20260831062508 77 352 0.0 0.0 0.00 0.00 0.00 86 1010.0
20260831062008 77 352 0.0 0.0 0.00 0.00 0.00 85 1010.0
20260831061504 77 352 0.0 2.0 0.00 0.00 0.00 85 1010.0
20260831061010 77 352 0.0 2.0 0.00 0.00 0.00 84 1009.8
20260831060505 77 352 0.0 2.0 0.00 0.00 0.00 84 1009.8
20260831060026 78 352 0.0 2.0 0.00 0.00 0.00 84 1009.8
20260831055507 78 352 0.0 1.0 0.00 0.00 0.00 84 1009.7
20260831055003 78 352 0.0 2.0 0.00 0.00 0.00 84 1009.8
20260831054507 78 352 0.0 2.0 0.00 0.00 0.00 84 1009.7
20260831054011 77 352 0.0 2.0 0.00 0.00 0.00 84 1009.6
20260831053506 77 352 1.0 2.0 0.00 0.00 0.00 85 1009.6
20260831053024 77 352 0.0 2.0 0.00 0.00 0.00 84 1009.6
20260831052507 77 352 0.0 2.0 0.00 0.00 0.00 84 1009.6
20260831052008 77 352 0.0 2.0 0.00 0.00 0.00 85 1009.4
20260831051515 77 352 0.0 3.0 0.00 0.00 0.00 85 1009.4
20260831051013 77 352 2.0 3.0 0.00 0.00 0.00 84 1009.4
20260831050512 78 286 0.0 2.0 0.00 0.00 0.00 83 1009.3
20260831050023 78 286 0.0 1.0 0.00 0.00 0.00 83 1009.3
20260831045514 78 286 0.0 0.0 0.00 0.00 0.00 83 1009.3
20260831045012 78 286 0.0 0.0 0.00 0.00 0.00 83 1009.3
20260831044509 78 286 0.0 0.0 0.00 0.00 0.00 82 1009.3
20260831044008 78 286 0.0 0.0 0.00 0.00 0.00 83 1009.3
20260831043504 78 286 0.0 0.0 0.00 0.00 0.00 83 1009.3
20260831043010 78 286 0.0 0.0 0.00 0.00 0.00 83 1009.3
20260831042509 78 286 0.0 0.0 0.00 0.00 0.00 83 1009.4
20260831042008 78 286 0.0 0.0 0.00 0.00 0.00 83 1009.3
20260831041513 78 286 0.0 0.0 0.00 0.00 0.00 83 1009.4
20260831041007 78 286 0.0 0.0 0.00 0.00 0.00 83 1009.4
20260831040509 78 286 0.0 0.0 0.00 0.00 0.00 82 1009.4
20260831040026 78 286 0.0 0.0 0.00 0.00 0.00 82 1009.5
20260831035515 78 286 0.0 0.0 0.00 0.00 0.00 82 1009.5
20260831035009 78 286 0.0 2.0 0.00 0.00 0.00 82 1009.6
20260831034523 78 286 0.0 2.0 0.00 0.00 0.00 81 1009.6
20260831034009 79 286 0.0 2.0 0.00 0.00 0.00 81 1009.7
20260831033517 79 286 0.0 2.0 0.00 0.00 0.00 80 1009.7
20260831033017 79 286 0.0 0.0 0.00 0.00 0.00 79 1009.7
20260831032510 79 286 0.0 0.0 0.00 0.00 0.00 79 1009.6
20260831032008 80 286 0.0 0.0 0.00 0.00 0.00 79 1009.6
20260831031513 80 286 0.0 0.0 0.00 0.00 0.00 78 1009.7
20260831031011 79 286 0.0 0.0 0.00 0.00 0.00 79 1009.8
20260831030513 79 286 0.0 0.0 0.00 0.00 0.00 79 1009.8
20260831030016 80 286 0.0 0.0 0.00 0.00 0.00 79 1009.9
20260831025510 80 286 0.0 0.0 0.00 0.00 0.00 79 1009.9
20260831025012 80 286 0.0 0.0 0.00 0.00 0.00 78 1009.9
20260831024515 80 286 0.0 0.0 0.00 0.00 0.00 77 1009.8
20260831024011 81 286 0.0 0.0 0.00 0.00 0.00 76 1009.8
20260831023513 81 286 0.0 0.0 0.00 0.00 0.00 77 1009.7
20260831023027 81 286 0.0 0.0 0.00 0.00 0.00 77 1009.7
20260831022515 81 286 0.0 0.0 0.00 0.00 0.00 76 1009.6
20260831022011 81 286 0.0 0.0 0.00 0.00 0.00 77 1009.6
20260831021529 81 286 0.0 0.0 0.00 0.00 0.00 76 1009.6
20260831021012 81 286 0.0 0.0 0.00 0.00 0.00 77 1009.5
20260831020510 81 286 0.0 0.0 0.00 0.00 0.00 77 1009.5
20260831020022 81 286 0.0 0.0 0.00 0.00 0.00 76 1009.5
20260831015512 81 286 0.0 0.0 0.00 0.00 0.00 76 1009.4
20260831015013 82 286 0.0 0.0 0.00 0.00 0.00 75 1009.3
20260831014525 82 286 0.0 0.0 0.00 0.00 0.00 73 1009.3
20260831014011 82 286 0.0 0.0 0.00 0.00 0.00 73 1009.1
20260831013514 83 286 0.0 0.0 0.00 0.00 0.00 72 1009.1
20260831013023 83 286 0.0 0.0 0.00 0.00 0.00 72 1009.2
20260831012509 83 286 0.0 0.0 0.00 0.00 0.00 72 1009.1
20260831012017 83 286 0.0 0.0 0.00 0.00 0.00 71 1009.1
20260831011526 83 286 0.0 0.0 0.00 0.00 0.00 71 1009.1
20260831011018 84 286 0.0 0.0 0.00 0.00 0.00 71 1009.1
20260831010517 84 286 0.0 0.0 0.00 0.00 0.00 71 1009.1
20260831010018 84 286 0.0 0.0 0.00 0.00 0.00 71 1009.0
20260831005513 84 286 0.0 0.0 0.00 0.00 0.00 70 1009.0
20260831005015 84 286 0.0 0.0 0.00 0.00 0.00 70 1008.9
20260831004518 84 286 0.0 0.0 0.00 0.00 0.00 69 1009.0
20260831004018 84 286 0.0 0.0 0.00 0.00 0.00 69 1009.0
20260831003509 85 286 0.0 0.0 0.00 0.00 0.00 69 1009.0
20260831003034 85 286 0.0 0.0 0.00 0.00 0.00 68 1009.0
20260831002514 86 286 0.0 0.0 0.00 0.00 0.00 67 1009.0
20260831002011 86 286 0.0 0.0 0.00 0.00 0.00 66 1009.0
20260831001521 86 286 0.0 2.0 0.00 0.00 0.00 65 1009.0
20260831001015 86 286 0.0 2.0 0.00 0.00 0.00 65 1009.0
20260831000518 87 298 0.0 2.0 0.00 0.00 0.00 64 1009.0
20260831000034 87 298 0.0 2.0 0.00 0.00 0.00 63 1009.0
20260830235513 88 306 1.0 2.0 0.00 0.00 0.00 64 1009.0
20260830235014 88 277 0.0 2.0 0.00 0.00 0.00 61 1009.0
20260830234527 88 277 0.0 4.0 0.00 0.00 0.00 62 1009.0
20260830234011 89 242 1.0 4.0 0.00 0.00 0.00 60 1009.0
20260830233514 89 165 0.0 2.0 0.00 0.00 0.00 62 1009.0
20260830233024 89 156 0.0 2.0 0.00 0.00 0.00 61 1008.9
20260830232511 90 157 0.0 2.0 0.00 0.00 0.00 60 1008.9
20260830232014 90 156 0.0 2.0 0.00 0.00 0.00 59 1008.9
20260830231524 91 323 1.0 2.0 0.00 0.00 0.00 56 1008.9
20260830231009 91 185 0.0 3.0 0.00 0.00 0.00 57 1008.8
20260830230512 91 241 1.0 3.0 0.00 0.00 0.00 58 1008.8
20260830230008 91 182 1.0 4.0 0.00 0.00 0.00 58 1008.7
20260830225506 91 291 0.0 4.0 0.00 0.00 0.00 58 1008.8
20260830225010 91 263 1.0 6.0 0.00 0.00 0.00 58 1008.7
20260830224514 91 306 0.0 6.0 0.00 0.00 0.00 57 1008.7
20260830224012 91 78 1.0 5.0 0.00 0.00 0.00 59 1008.7
20260830223512 91 292 1.0 5.0 0.00 0.00 0.00 55 1008.8
20260830223012 91 34 2.0 3.0 0.00 0.00 0.00 57 1008.7
20260830222513 91 236 1.0 3.0 0.00 0.00 0.00 56 1008.8
20260830222005 91 197 0.0 4.0 0.00 0.00 0.00 57 1008.8
20260830221508 91 202 1.0 5.0 0.00 0.00 0.00 55 1008.8
20260830221016 91 348 2.0 5.0 0.00 0.00 0.00 56 1008.7
20260830220515 91 40 0.0 5.0 0.00 0.00 0.00 56 1008.8
20260830220011 90 176 2.0 5.0 0.00 0.00 0.00 55 1008.7
20260830215513 90 124 1.0 5.0 0.00 0.00 0.00 58 1008.7
20260830215016 89 173 1.0 6.0 0.00 0.00 0.00 61 1008.7
20260830214514 90 304 1.0 6.0 0.00 0.00 0.00 56 1008.7
20260830214013 91 147 2.0 5.0 0.00 0.00 0.00 56 1008.6
20260830213508 90 218 1.0 4.0 0.00 0.00 0.00 56 1008.6
20260830213019 91 158 1.0 4.0 0.00 0.00 0.00 54 1008.6
20260830212508 91 317 1.0 4.0 0.00 0.00 0.00 52 1008.6
20260830212012 90 213 2.0 4.0 0.00 0.00 0.00 54 1008.6
20260830211526 91 334 1.0 4.0 0.00 0.00 0.00 52 1008.7
20260830211011 91 305 1.0 5.0 0.00 0.00 0.00 54 1008.8
20260830210510 90 160 2.0 5.0 0.00 0.00 0.00 56 1008.9
20260830210023 88 293 1.0 8.0 0.00 0.00 0.00 56 1009.0
20260830205509 88 215 0.0 8.0 0.00 0.00 0.00 54 1009.0
20260830205010 89 299 0.0 8.0 0.00 0.00 0.00 56 1009.1
20260830204519 89 298 3.0 8.0 0.00 0.00 0.00 53 1009.2
20260830204015 89 350 3.0 8.0 0.00 0.00 0.00 57 1009.3
20260830203514 88 282 2.0 5.0 0.00 0.00 0.00 57 1009.3
20260830203014 88 240 1.0 5.0 0.00 0.00 0.00 62 1009.3
20260830202506 87 308 1.0 4.0 0.00 0.00 0.00 59 1009.5
20260830202003 87 291 1.0 4.0 0.00 0.00 0.00 58 1009.3
20260830201504 87 260 2.0 5.0 0.00 0.00 0.00 58 1009.2
20260830201002 87 134 1.0 4.0 0.00 0.00 0.00 59 1009.0
20260830200504 89 207 1.0 3.0 0.00 0.00 0.00 56 1009.1
20260830200010 89 342 1.0 4.0 0.00 0.00 0.00 57 1009.1
20260830195502 89 352 1.0 3.0 0.00 0.00 0.00 58 1009.3
20260830195003 88 264 0.0 2.0 0.00 0.00 0.00 63 1009.5
20260830194507 86 180 1.0 2.0 0.00 0.00 0.00 62 1009.5
20260830194004 85 185 1.0 2.0 0.00 0.00 0.00 63 1009.7
20260830193503 85 332 0.0 4.0 0.00 0.00 0.00 65 1009.8
20260830193006 85 61 1.0 4.0 0.00 0.00 0.00 63 1009.8
20260830192505 85 236 1.0 2.0 0.00 0.00 0.00 63 1009.8
20260830192007 85 90 1.0 7.0 0.00 0.00 0.00 61 1009.8
20260830191503 85 188 3.0 7.0 0.00 0.00 0.00 61 1009.7
20260830191004 85 182 0.0 7.0 0.00 0.00 0.00 63 1009.7
20260830190503 85 267 2.0 5.0 0.00 0.00 0.00 62 1009.7
20260830190041 85 207 1.0 4.0 0.00 0.00 0.00 61 1009.3
20260830185503 87 260 1.0 4.0 0.00 0.00 0.00 57 1009.4
20260830185002 87 163 2.0 7.0 0.00 0.00 0.00 59 1009.4
20260830184508 87 313 2.0 7.0 0.00 0.00 0.00 58 1009.5
20260830184005 86 234 2.0 4.0 0.00 0.00 0.00 59 1009.5
20260830183503 85 332 2.0 5.0 0.00 0.00 0.00 58 1009.4
20260830183012 85 148 2.0 6.0 0.00 0.00 0.00 59 1009.4
20260830182508 86 267 1.0 6.0 0.00 0.00 0.00 58 1009.5
20260830182004 85 135 2.0 5.0 0.00 0.00 0.00 60 1009.6
20260830181518 85 48 2.0 4.0 0.00 0.00 0.00 58 1009.8
20260830181005 85 159 2.0 4.0 0.00 0.00 0.00 58 1010.0
20260830180504 85 98 2.0 8.0 0.00 0.00 0.00 57 1010.2
20260830180010 85 14 1.0 8.0 0.00 0.00 0.00 56 1010.0
20260830175502 86 188 3.0 8.0 0.00 0.00 0.00 57 1010.0
20260830175002 86 269 2.0 9.0 0.00 0.00 0.00 58 1010.1
20260830174503 86 199 3.0 9.0 0.00 0.00 0.00 57 1010.1
20260830174002 86 312 2.0 9.0 0.00 0.00 0.00 56 1010.1
20260830173505 86 296 2.0 9.0 0.00 0.00 0.00 56 1010.1
20260830173004 87 207 2.0 9.0 0.00 0.00 0.00 53 1010.1
20260830172507 87 172 2.0 10.0 0.00 0.00 0.00 55 1010.1
20260830172010 88 170 3.0 10.0 0.00 0.00 0.00 53 1010.1
20260830171505 87 175 2.0 8.0 0.00 0.00 0.00 56 1010.0
20260830171006 87 94 3.0 8.0 0.00 0.00 0.00 57 1010.0
20260830170509 86 205 1.0 7.0 0.00 0.00 0.00 56 1010.0
20260830170004 85 313 1.0 8.0 0.00 0.00 0.00 60 1010.0
20260830165512 85 136 1.0 8.0 0.00 0.00 0.00 57 1010.0
20260830165004 85 233 2.0 8.0 0.00 0.00 0.00 56 1010.0
20260830164515 86 333 4.0 8.0 0.00 0.00 0.00 54 1010.0
20260830164004 86 191 2.0 7.0 0.00 0.00 0.00 55 1010.0
20260830163505 86 213 2.0 8.0 0.00 0.00 0.00 55 1010.0